Location: *
(46.3500°N, 10.9000°E)
Time: 00:59:17
(UTC+00:00)

Vanguard 2 - Pass Details

Date: 21 April 2021
Orbit: 552 x 2938 km, 32.9° (Epoch: 12 May)

Event Time Altitude Azimuth Distance (km) Brightness Sun altitude
Rises 10:24:01 0° 220° (SW) 6,782 12.6 54.0°
Reaches altitude 10° 10:29:25 10° 211° (SSW) 5,703 12.4 54.3°
Maximum altitude 10:43:06 31° 159° (SSE) 3,670 12.4 55.0°
Drops below altitude 10° 10:53:31 10° 103° (ESE) 4,336 11.7 55.4°
Sets 10:56:55 0° 93° (E) 5,007 11.8 55.5°
